Tiempo cada hora Dabrowka

Hoy, 25 Junio, Viernes

Tiempo Temperatura Precipitaciones Viento Presión Humedad
00:00 +21°C° 0.4 mm 1 mps 748 mmHg 97%
01:00 +20°C° 0.4 mm 1 mps 748 mmHg 97%
02:00 +20°C° 0 mm 1 mps 748 mmHg 97%
03:00 +20°C° 0 mm 1 mps 748 mmHg 98%
04:00 +19°C° 0 mm 2 mps 748 mmHg 98%
05:00 +19°C° 0 mm 2 mps 748 mmHg 97%
06:00 +20°C° 0 mm 2 mps 749 mmHg 95%
07:00 +20°C° 0 mm 3 mps 749 mmHg 94%
08:00 +21°C° 0.1 mm 2 mps 749 mmHg 90%
09:00 +21°C° 0.1 mm 2 mps 749 mmHg 86%
10:00 +23°C° 0.1 mm 2 mps 749 mmHg 82%
11:00 +22°C° 0 mm 3 mps 749 mmHg 78%
12:00 +24°C° 0 mm 3 mps 749 mmHg 74%
13:00 +25°C° 0 mm 3 mps 749 mmHg 70%
14:00 +24°C° 0.1 mm 3 mps 749 mmHg 72%
15:00 +23°C° 0.1 mm 4 mps 749 mmHg 74%
16:00 +22°C° 0.1 mm 4 mps 749 mmHg 76%
17:00 +21°C° 0.1 mm 4 mps 749 mmHg 80%
18:00 +20°C° 0.1 mm 4 mps 749 mmHg 83%
19:00 +19°C° 0.1 mm 4 mps 749 mmHg 87%
20:00 +18°C° 0 mm 3 mps 750 mmHg 88%
21:00 +18°C° 0 mm 3 mps 750 mmHg 90%
22:00 +17°C° 0 mm 3 mps 750 mmHg 91%
23:00 +16°C° 0 mm 3 mps 750 mmHg 91%

Mañana, 26 Junio, Sábado

Tiempo Temperatura Precipitaciones Viento Presión Humedad
00:00 +16°C° 0 mm 3 mps 750 mmHg 91%
01:00 +14°C° 0 mm 3 mps 750 mmHg 91%
02:00 +14°C° 0 mm 2 mps 750 mmHg 92%
03:00 +14°C° 0 mm 2 mps 750 mmHg 93%
04:00 +13°C° 0 mm 2 mps 751 mmHg 93%
05:00 +14°C° 0 mm 3 mps 751 mmHg 87%
06:00 +17°C° 0 mm 3 mps 751 mmHg 80%
07:00 +19°C° 0 mm 4 mps 751 mmHg 73%
08:00 +20°C° 0 mm 4 mps 751 mmHg 68%
09:00 +21°C° 0 mm 3 mps 752 mmHg 64%
10:00 +22°C° 0 mm 3 mps 752 mmHg 59%
11:00 +24°C° 0 mm 3 mps 752 mmHg 57%
12:00 +24°C° 0 mm 3 mps 751 mmHg 56%
13:00 +25°C° 0 mm 4 mps 751 mmHg 54%
14:00 +24°C° 0 mm 3 mps 751 mmHg 56%
15:00 +24°C° 0 mm 3 mps 751 mmHg 57%
16:00 +24°C° 0 mm 3 mps 751 mmHg 58%
17:00 +22°C° 0 mm 3 mps 751 mmHg 65%
18:00 +21°C° 0 mm 3 mps 751 mmHg 71%
19:00 +20°C° 0 mm 2 mps 751 mmHg 77%
20:00 +18°C° 0 mm 2 mps 751 mmHg 82%
21:00 +17°C° 0 mm 2 mps 751 mmHg 87%
22:00 +15°C° 0 mm 2 mps 752 mmHg 93%
23:00 +15°C° 0 mm 2 mps 752 mmHg 94%

Pasado mañana, 27 Junio, Domingo

Tiempo Temperatura Precipitaciones Viento Presión Humedad
00:00 +14°C° 0 mm 2 mps 752 mmHg 95%
01:00 +14°C° 0 mm 2 mps 752 mmHg 96%
02:00 +14°C° 0 mm 2 mps 752 mmHg 96%
03:00 +14°C° 0 mm 2 mps 752 mmHg 96%
04:00 +14°C° 0 mm 1 mps 752 mmHg 96%
05:00 +16°C° 0 mm 2 mps 752 mmHg 89%
06:00 +17°C° 0 mm 2 mps 752 mmHg 82%
07:00 +19°C° 0 mm 2 mps 752 mmHg 75%
08:00 +20°C° 0 mm 2 mps 752 mmHg 68%
09:00 +22°C° 0 mm 3 mps 752 mmHg 62%
10:00 +24°C° 0 mm 3 mps 752 mmHg 56%
11:00 +24°C° 0 mm 3 mps 752 mmHg 52%
12:00 +25°C° 0 mm 3 mps 752 mmHg 49%
13:00 +25°C° 0 mm 4 mps 752 mmHg 46%
14:00 +25°C° 0 mm 3 mps 751 mmHg 47%
15:00 +25°C° 0 mm 3 mps 751 mmHg 48%
16:00 +25°C° 0 mm 3 mps 751 mmHg 49%
17:00 +22°C° 0 mm 3 mps 751 mmHg 58%
18:00 +21°C° 0 mm 2 mps 751 mmHg 66%
19:00 +20°C° 0 mm 2 mps 751 mmHg 74%
20:00 +18°C° 0 mm 2 mps 751 mmHg 79%
21:00 +17°C° 0 mm 2 mps 751 mmHg 83%
22:00 +15°C° 0 mm 2 mps 752 mmHg 88%
23:00 +15°C° 0 mm 1 mps 752 mmHg 89%

28 Junio, Lunes

Tiempo Temperatura Precipitaciones Viento Presión Humedad
00:00 +14°C° 0 mm 1 mps 752 mmHg 90%
01:00 +14°C° 0 mm 1 mps 752 mmHg 91%
02:00 +14°C° 0 mm 1 mps 752 mmHg 90%
03:00 +14°C° 0 mm 1 mps 752 mmHg 90%
04:00 +14°C° 0 mm 1 mps 752 mmHg 89%
05:00 +16°C° 0 mm 1 mps 752 mmHg 82%
06:00 +19°C° 0 mm 1 mps 752 mmHg 74%
07:00 +20°C° 0 mm 2 mps 752 mmHg 67%
08:00 +21°C° 0 mm 2 mps 752 mmHg 62%
09:00 +23°C° 0 mm 2 mps 752 mmHg 58%
10:00 +25°C° 0 mm 2 mps 752 mmHg 53%
11:00 +25°C° 0 mm 3 mps 752 mmHg 52%
12:00 +26°C° 0 mm 3 mps 752 mmHg 52%
13:00 +26°C° 0 mm 3 mps 751 mmHg 51%
14:00 +26°C° 0.1 mm 3 mps 751 mmHg 53%
15:00 +26°C° 0.1 mm 3 mps 751 mmHg 56%
16:00 +25°C° 0.1 mm 3 mps 751 mmHg 59%
17:00 +24°C° 0.1 mm 3 mps 751 mmHg 66%
18:00 +23°C° 0.1 mm 2 mps 751 mmHg 73%
19:00 +21°C° 0.1 mm 2 mps 751 mmHg 80%
20:00 +20°C° 0 mm 1 mps 751 mmHg 83%
21:00 +19°C° 0 mm 1 mps 751 mmHg 87%
22:00 +18°C° 0 mm 1 mps 751 mmHg 90%
23:00 +16°C° 0 mm 1 mps 751 mmHg 91%

29 Junio, Martes

Tiempo Temperatura Precipitaciones Viento Presión Humedad
00:00 +16°C° 0 mm 1 mps 751 mmHg 91%
01:00 +16°C° 0 mm 1 mps 750 mmHg 91%
02:00 +16°C° 0 mm 1 mps 750 mmHg 91%
03:00 +16°C° 0 mm 1 mps 750 mmHg 91%
04:00 +16°C° 0 mm 1 mps 750 mmHg 90%
05:00 +19°C° 0 mm 1 mps 750 mmHg 83%
06:00 +21°C° 0 mm 1 mps 750 mmHg 76%
07:00 +23°C° 0 mm 1 mps 750 mmHg 69%
08:00 +24°C° 0.1 mm 2 mps 750 mmHg 64%
09:00 +26°C° 0.1 mm 2 mps 749 mmHg 59%
10:00 +27°C° 0.1 mm 2 mps 749 mmHg 53%
11:00 +27°C° 0.1 mm 2 mps 749 mmHg 52%
12:00 +28°C° 0.1 mm 2 mps 749 mmHg 51%
13:00 +28°C° 0.1 mm 3 mps 749 mmHg 50%
14:00 +28°C° 0 mm 2 mps 748 mmHg 52%
15:00 +28°C° 0 mm 2 mps 748 mmHg 53%
16:00 +27°C° 0 mm 2 mps 748 mmHg 55%
17:00 +26°C° 0 mm 1 mps 748 mmHg 60%
18:00 +26°C° 0 mm 1 mps 747 mmHg 65%
19:00 +25°C° 0 mm 1 mps 747 mmHg 69%
20:00 +24°C° 0 mm 1 mps 747 mmHg 70%
21:00 +23°C° 0 mm 2 mps 747 mmHg 70%
22:00 +21°C° 0 mm 2 mps 747 mmHg 71%
23:00 +20°C° 0 mm 2 mps 747 mmHg 72%

30 Junio, Miércoles

Tiempo Temperatura Precipitaciones Viento Presión Humedad
00:00 +19°C° 0 mm 2 mps 747 mmHg 73%
01:00 +19°C° 0 mm 3 mps 747 mmHg 73%
02:00 +19°C° 0 mm 2 mps 746 mmHg 73%
03:00 +19°C° 0 mm 2 mps 746 mmHg 73%
04:00 +19°C° 0 mm 2 mps 746 mmHg 73%
05:00 +20°C° 0 mm 3 mps 746 mmHg 71%
06:00 +21°C° 0 mm 3 mps 746 mmHg 70%
07:00 +22°C° 0 mm 3 mps 746 mmHg 68%
08:00 +23°C° 0.3 mm 2 mps 746 mmHg 72%
09:00 +23°C° 0.3 mm 2 mps 746 mmHg 76%
10:00 +22°C° 0.3 mm 1 mps 746 mmHg 80%
11:00 +24°C° 0.4 mm 2 mps 746 mmHg 76%
12:00 +25°C° 0.4 mm 3 mps 746 mmHg 72%
13:00 +26°C° 0.4 mm 3 mps 746 mmHg 67%
14:00 +26°C° 0.7 mm 4 mps 745 mmHg 67%
15:00 +25°C° 0.7 mm 4 mps 745 mmHg 67%
16:00 +23°C° 0.7 mm 5 mps 745 mmHg 67%
17:00 +22°C° 0.1 mm 5 mps 745 mmHg 72%
18:00 +20°C° 0.1 mm 5 mps 746 mmHg 77%
19:00 +19°C° 0.1 mm 5 mps 746 mmHg 81%
20:00 +16°C° 0 mm 5 mps 746 mmHg 84%
21:00 +15°C° 0 mm 4 mps 747 mmHg 87%
22:00 +14°C° 0 mm 4 mps 747 mmHg 90%
23:00 +13°C° 0 mm 4 mps 747 mmHg 92%
Mostrar más

Necesitamos Su Consentimiento

Meteoprog y nuestros Proveedores de Servicios pueden almacenar y acceder a sus datos personales como cookies, identificadores de dispositivo u otras tecnologías similares de su dispositivo y procesar dichos datos para personalizar contenido y anuncios, además de ofrecer funciones de redes sociales y analizar el tráfico.

  • Almacenar y/o acceder a información en su dispositivo

    Se puede almacenar o acceder a cookies, identificadores de dispositivo u otra información de su dispositivo para los fines anteriormente indicados.

  • Anuncios y contenido personalizados, medición de anuncios y contenido, percepciones del público, y desarrollo de productos

    Los anuncios y el contenido pueden personalizarse en base a su perfil. Se pueden añadir más datos para personalizar mejor los anuncios y contenidos. Se puede medir el rendimiento de los anuncios y contenidos. Se puede obtener la percepción sobre el público que ha visto los anuncios y contenidos. Dichos datos pueden usarse para desarrollar o mejorar la experiencia del usuario, sistemas y software.

Al hacer clic en ‘Estoy De Acuerdo’ usted permitirá el uso de las cookies, identificadores de dispositivo, balizas web u otras tecnologías similares indicadas. Su configuración puede cambiarse desde el navegador de su dispositivo.

Para ciertos fines, los intereses legítimos pueden ser considerados por encima del consentimiento. Puede leer más sobre ello en nuestra Política de Privacidad y Cookies.